DW5321 Paradera AW current weather conditions

sailwx.info

Wind from 086 at 12 knots gusting 19

Air temperature 27.8° C
Dewpoint 25.6° C

Last reported at 2017-May-25 00:06 UTC.
Time now 2017-May-25 01:11 UTC

Location: N 12°33' W 070°00'.
View on Google Maps.

See reports from other nearby stations

  
Tides and Currents Weather Stations Pressure Air Temp Water Temp Dewpoint Dewpoint Depression Visibility Wind Speed Wind Dir Waves Ship Positions
date/time (UTC)wind fromknots sea level pressurealtimeterstation pressurevisibilityair tempwater tempwave heightnotes
2017-May-25 00:06 086 12 gusting 19 27.8
2017-May-24 23:51 084 9 gusting 19 27.8
2017-May-24 23:35 092 11 gusting 19 27.8
2017-May-24 23:20 073 9 gusting 17 27.8
2017-May-24 23:05 065 9 gusting 18 27.8
2017-May-24 22:50 138 10 gusting 22 27.8
2017-May-24 22:35 096 12 gusting 20 27.8
2017-May-24 22:20 117 13 gusting 23 28.3
2017-May-24 22:04 064 13 gusting 21 28.3
2017-May-24 21:49 037 8 gusting 18 28.9
2017-May-24 21:34 120 12 gusting 20 29.4
2017-May-24 21:19 136 10 gusting 18 29.4
2017-May-24 21:04 085 13 gusting 21 28.9
2017-May-24 20:49 110 12 gusting 20 29.4
2017-May-24 20:34 103 9 gusting 23 29.4
2017-May-24 20:19 103 13 gusting 22 29.4
2017-May-24 20:04 120 19 gusting 26 29.4
2017-May-24 19:47 110 12 gusting 23 29.4
2017-May-24 19:32 113 14 gusting 22 29.4
2017-May-24 19:17 097 12 gusting 19 30.0
2017-May-24 19:02 113 12 gusting 21 30.0
2017-May-24 18:47 108 11 gusting 21 29.4
2017-May-24 18:32 039 13 gusting 23 30.0
2017-May-24 18:16 082 12 gusting 19 30.0
2017-May-24 18:01 098 12 gusting 20 29.4
2017-May-24 17:46 074 14 gusting 25 29.4
2017-May-24 17:31 094 13 gusting 21 30.0
2017-May-24 17:16 112 11 gusting 24 30.0
2017-May-24 17:00 077 13 gusting 21 30.0
2017-May-24 16:45 104 13 gusting 26 30.0
2017-May-24 16:30 082 15 gusting 24 30.0
2017-May-24 16:15 100 14 gusting 24 30.0
2017-May-24 16:00 099 17 gusting 26 30.0
2017-May-24 15:45 108 14 gusting 26 30.0
2017-May-24 15:29 084 11 gusting 22 29.4
2017-May-24 15:14 105 11 gusting 22 29.4
2017-May-24 15:00 098 11 gusting 21 29.4
2017-May-24 14:44 129 14 gusting 21 28.9
2017-May-24 14:29 107 16 gusting 26 28.9
2017-May-24 14:14 110 14 gusting 22 28.9
2017-May-24 14:00 089 12 gusting 19 28.9
2017-May-24 13:44 075 13 gusting 22 28.9
2017-May-24 13:29 107 13 gusting 21 28.3
2017-May-24 13:14 099 13 gusting 19 28.3
2017-May-24 13:00 124 8 gusting 19 28.3
2017-May-24 12:42 103 13 gusting 22 28.3
2017-May-24 12:27 117 11 gusting 22 28.3
2017-May-24 12:12 099 12 gusting 21 28.3
2017-May-24 11:57 117 11 gusting 18 27.8
2017-May-24 11:41 117 10 gusting 16 27.8
2017-May-24 11:26 064 12 gusting 18 27.8
2017-May-24 11:11 121 13 gusting 19 27.2
2017-May-24 10:56 117 9 gusting 17 27.2
2017-May-24 10:41 108 10 gusting 17 27.2
2017-May-24 10:26 114 10 gusting 16 27.2
2017-May-24 10:10 098 11 gusting 16 27.2
2017-May-24 09:55 089 8 gusting 14 27.2
2017-May-24 09:40 100 11 gusting 17 27.2
2017-May-24 09:25 105 9 gusting 14 27.2
2017-May-24 09:10 122 11 gusting 20 27.2
2017-May-24 08:54 112 9 gusting 15 27.2
2017-May-24 08:39 110 7 gusting 21 27.2
2017-May-24 08:24 123 10 gusting 18 27.2
2017-May-24 08:09 099 9 gusting 15 27.2
2017-May-24 07:54 117 12 gusting 20 27.2
2017-May-24 07:39 105 10 gusting 17 27.2
2017-May-24 07:24 120 9 gusting 15 27.2
2017-May-24 07:09 120 9 gusting 16 27.2
2017-May-24 06:54 114 7 gusting 14 27.2
2017-May-24 06:39 101 5 gusting 17 27.2
2017-May-24 06:24 094 7 gusting 19 27.2
2017-May-24 06:07 103 11 gusting 17 27.2
2017-May-24 05:52 120 10 gusting 18 27.2
2017-May-24 05:37 095 11 gusting 19 27.2
2017-May-24 05:22 120 11 gusting 19 27.2
2017-May-24 05:07 089 12 gusting 19 27.8
2017-May-24 04:52 105 11 gusting 20 27.8
2017-May-24 04:36 116 14 gusting 21 27.8
2017-May-24 04:21 089 10 gusting 22 27.8
2017-May-24 04:06 104 10 gusting 19 27.8
2017-May-24 03:51 109 8 gusting 14 27.8
2017-May-24 03:35 099 10 gusting 16 27.8
2017-May-24 03:20 077 11 gusting 19 27.8
2017-May-24 03:05 103 10 gusting 16 27.8
2017-May-24 02:50 124 10 gusting 18 27.8
2017-May-24 02:35 101 7 gusting 16 27.8
2017-May-24 02:20 060 9 gusting 15 27.8
2017-May-24 02:04 056 7 gusting 17 27.8
2017-May-24 01:49 090 9 gusting 16 27.8
2017-May-24 01:34 081 10 gusting 15 27.8
2017-May-24 01:19 079 9 gusting 18 27.8
2017-May-24 01:04 108 6 gusting 18 27.8
2017-May-24 00:49 073 9 gusting 15 27.8
2017-May-24 00:34 075 8 gusting 15 27.8
2017-May-24 00:19 075 7 gusting 13 27.8
2017-May-24 00:04 060 10 gusting 16 27.8
2017-May-23 23:49 110 9 gusting 16 27.8
2017-May-23 23:34 068 9 gusting 15 27.8
2017-May-23 23:17 091 8 gusting 16 27.8
2017-May-23 23:02 075 6 gusting 17 27.8
2017-May-23 22:47 084 6 gusting 14 28.3
2017-May-23 22:32 132 6 gusting 14 28.3
2017-May-23 22:17 079 9 gusting 14 28.3
2017-May-23 22:01 062 9 gusting 16 28.9
2017-May-23 21:46 085 9 gusting 15 28.9
2017-May-23 21:31 049 9 gusting 16 28.9
2017-May-23 21:16 056 8 gusting 17 28.9
2017-May-23 21:00 132 9 gusting 18 29.4
2017-May-23 20:45 072 10 gusting 17 29.4
2017-May-23 20:30 039 10 gusting 19 29.4
2017-May-23 20:15 079 12 gusting 18 29.4
2017-May-23 20:00 111 11 gusting 18 29.4
2017-May-23 19:45 056 10 gusting 19 29.4
2017-May-23 19:30 059 11 gusting 19 29.4
2017-May-23 19:14 082 11 gusting 15 30.0
2017-May-23 19:00 077 7 gusting 16 30.6
2017-May-23 18:44 113 12 gusting 19 30.6
2017-May-23 18:29 050 9 gusting 19 30.6
2017-May-23 18:14 099 10 gusting 17 30.6
2017-May-23 18:00 068 10 gusting 19 30.6
2017-May-23 17:44 107 7 gusting 17 30.6
2017-May-23 17:29 103 12 gusting 24 30.0
2017-May-23 17:14 105 9 gusting 20 30.0
2017-May-23 17:00 120 13 gusting 21 30.6
2017-May-23 16:44 075 13 gusting 20 30.6
2017-May-23 16:27 101 13 gusting 20 30.6
2017-May-23 16:12 113 13 gusting 19 30.6
2017-May-23 15:57 124 12 gusting 23 30.0
2017-May-23 15:42 077 14 gusting 25 30.0
2017-May-23 15:27 132 14 gusting 22 30.0
2017-May-23 15:11 114 14 gusting 24 30.0
2017-May-23 14:56 107 16 gusting 23 29.4
2017-May-23 14:41 129 13 gusting 22 29.4
2017-May-23 14:26 117 13 gusting 24 29.4
2017-May-23 14:11 101 10 gusting 21 29.4
2017-May-23 13:56 107 11 gusting 19 29.4
2017-May-23 13:40 108 12 gusting 22 29.4
2017-May-23 13:25 101 10 gusting 19 29.4
2017-May-23 13:10 094 13 gusting 20 28.9
2017-May-23 12:55 114 13 gusting 18 28.3
2017-May-23 12:39 068 9 gusting 18 28.3
2017-May-23 12:24 022 10 gusting 18 28.9
2017-May-23 12:09 090 10 gusting 19 28.3
2017-May-23 11:54 104 10 gusting 17 28.3
2017-May-23 11:39 098 11 gusting 17 28.3
2017-May-23 11:24 058 10 gusting 16 27.8
2017-May-23 11:09 072 7 gusting 14 27.2
2017-May-23 10:54 108 8 gusting 15 27.2
2017-May-23 10:39 101 9 gusting 15 27.2
2017-May-23 10:24 115 7 gusting 16 27.2
2017-May-23 10:07 101 7 gusting 13 27.2
2017-May-23 09:52 101 10 gusting 17 27.2
2017-May-23 09:37 100 6 gusting 13 27.2
2017-May-23 09:22 068 6 gusting 14 27.2
2017-May-23 09:07 090 8 gusting 14 26.7
2017-May-23 08:52 090 9 gusting 14 26.7
2017-May-23 08:37 084 7 gusting 12 27.2
2017-May-23 08:22 072 6 gusting 16 26.7
2017-May-23 08:07 095 8 gusting 15 27.2
2017-May-23 07:52 103 8 gusting 15 27.2
2017-May-23 07:35 117 7 gusting 13 27.2
2017-May-23 07:20 074 7 gusting 14 27.2
2017-May-23 07:05 090 8 gusting 15 27.2
2017-May-23 06:50 108 4 gusting 11 27.2
2017-May-23 06:35 077 6 gusting 13 27.2
2017-May-23 06:19 089 9 gusting 14 27.2
2017-May-23 06:04 096 8 gusting 15 27.2
2017-May-23 05:49 105 11 gusting 16 27.2
2017-May-23 05:34 105 7 gusting 14 27.2
2017-May-23 05:19 084 7 gusting 16 27.2
2017-May-23 05:04 111 10 gusting 15 27.2
2017-May-23 04:48 094 8 gusting 13 27.2
2017-May-23 04:33 113 6 gusting 14 27.2
2017-May-23 04:18 117 9 gusting 14 27.2
2017-May-23 04:03 090 8 gusting 15 27.2
2017-May-23 03:47 110 7 gusting 18 27.2
2017-May-23 03:32 070 8 gusting 19 27.2
2017-May-23 03:17 103 9 gusting 19 27.2
2017-May-23 03:02 079 9 gusting 17 27.2
2017-May-23 02:47 081 9 gusting 16 27.2
2017-May-23 02:32 075 6 gusting 14 27.2
2017-May-23 02:17 125 9 gusting 15 27.8
2017-May-23 02:02 094 7 gusting 16 27.2
2017-May-23 01:47 079 10 gusting 16 27.2
2017-May-23 01:32 053 9 gusting 17 27.2
2017-May-23 01:17 113 11 gusting 16 27.2
2017-May-23 01:00 020 9 gusting 13 27.2